Flag for U.S.A. Weather past 2 weeks in Brattleboro, Vermont, U.S.A.

Now
72 °F

Passing clouds.


Feels Like: 77 °F
Forecast: 52 / 78 °F
Wind: 5 mph from Northwest

Location: Keene / Dillant

Current Time: Aug 28, 2015 at 1:40:44 PM

Latest Report: Aug 28, 2015 at 1:15 PM


Visibility: 8 mi

Pressure: 30.16 "Hg

Humidity: 50%

Dew point: 52 °F

Location of BrattleboroLocation

Historic Weather in Brattleboro — Graph

°F

Brattleboro temperature yesterday

Maximum temperature yesterday: 73 °F (at 1:15 PM)
Minimum temperature yesterday: 55 °F (at 3:35 AM)
Average temperature yesterday: 63 °F

Past Weeks' High & Low Weather Summary

 TemperatureHumidityPressure
High91 °F (Aug 18, 3:55 PM)94% (Aug 21, 2:35 AM)30.19 "Hg (Aug 21, 2:35 AM)
Low52 °F (Aug 14, 3:55 AM)38% (Aug 17, 3:15 PM)29.83 "Hg (Aug 25, 3:55 PM)
Average70 °F72%30.04 "Hg
* Reported Aug 13 12:15 PM — Aug 28 12:15 PM, Brattleboro, Weather by CustomWeather, © 2015

Note: Actual official high and low records may vary slightly from our data, if they occured in-between our weather recording intervals... More about our weather records

Advertising

Brattleboro weather history for previous 24 hours

 ConditionsComfort  
Time TempWeatherWind HumidityBarometerVisibility
12:15 PM
Fri, Aug 28
72 °FSunny.8 mph50%30.18 "Hg10 mi
11:55 AM72 °FSunny.9 mph53%30.19 "Hg10 mi
11:35 AM72 °FSunny.8 mph53%30.19 "Hg10 mi
11:15 AM70 °FSunny.5 mph57%30.18 "Hg10 mi
10:55 AM68 °FSunny.6 mph60%30.18 "Hg10 mi
10:35 AM66 °FSunny.No wind64%30.19 "Hg10 mi
10:15 AM64 °FSunny.No wind68%30.19 "Hg10 mi
9:55 AM61 °FSunny.No wind72%30.19 "Hg10 mi
9:35 AM57 °FPassing clouds.No wind82%30.19 "Hg10 mi
9:15 AM55 °FLow clouds.No wind88%30.19 "Hg10 mi
8:55 AM54 °FLow clouds.No wind82%30.19 "Hg10 mi
8:35 AM54 °FLow clouds.No wind82%30.19 "Hg1 mi
8:15 AM54 °FLow clouds.No wind82%30.19 "Hg0 mi
7:55 AM52 °FLow clouds.No wind82%30.19 "Hg0 mi
7:35 AM52 °FLow clouds.No wind82%30.19 "Hg0 mi
7:15 AM52 °FLow clouds.No wind82%30.18 "Hg0 mi
6:55 AM52 °FLow clouds.No wind82%30.17 "Hg0 mi
6:35 AM52 °FLow clouds.No wind82%30.17 "Hg0 mi
6:15 AM52 °FLow clouds.No wind82%30.16 "Hg0 mi
5:55 AM52 °FLow clouds.No wind88%30.15 "Hg0 mi
5:35 AM52 °FLow clouds.No wind88%30.15 "Hg0 mi
5:15 AM52 °FLow clouds.No wind88%30.15 "Hg1 mi
4:55 AM52 °FLow clouds.No wind88%30.14 "Hg9 mi
4:35 AM54 °FLow clouds.No wind82%30.14 "Hg1 mi
4:15 AM54 °FLow clouds.No wind82%30.14 "Hg0 mi
3:55 AM54 °FLow clouds.No wind82%30.14 "Hg0 mi
3:35 AM54 °FLow clouds.No wind82%30.13 "Hg1 mi
3:15 AM54 °FLow clouds.No wind82%30.13 "Hg1 mi
2:55 AM54 °FLow clouds.No wind82%30.13 "Hg0 mi
2:35 AM54 °FLow clouds.3 mph82%30.12 "Hg0 mi
2:15 AM54 °FLow clouds.No wind82%30.12 "Hg1 mi
1:55 AM54 °FLow clouds.No wind82%30.12 "Hg0 mi
1:35 AM54 °FPassing clouds.No wind82%30.12 "Hg2 mi
1:15 AM54 °FClear.No wind82%30.12 "Hg1 mi
11:55 PM
Thu, Aug 27
55 °FClear.No wind88%30.12 "Hg7 mi
11:15 PM55 °FClear.No wind88%30.11 "Hg10 mi
10:55 PM57 °FClear.No wind82%30.11 "Hg10 mi
10:35 PM57 °FClear.No wind82%30.10 "Hg10 mi
10:15 PM57 °FClear.No wind82%30.10 "Hg10 mi
9:55 PM59 °FPassing clouds.No wind82%30.10 "Hg10 mi
9:35 PM57 °FClear.No wind82%30.09 "Hg10 mi
9:15 PM61 °FClear.No wind77%30.09 "Hg10 mi
8:55 PM61 °FClear.No wind77%30.07 "Hg10 mi
8:35 PM63 °FClear.No wind73%30.07 "Hg10 mi
8:15 PM63 °FSunny.No wind73%30.06 "Hg10 mi
7:55 PM66 °FSunny.No wind64%30.05 "Hg10 mi
7:35 PM68 °FScattered clouds.3 mph60%30.04 "Hg10 mi
7:15 PM70 °FPartly sunny.3 mph57%30.04 "Hg10 mi
6:55 PM70 °FMostly cloudy.5 mph53%30.03 "Hg10 mi
6:35 PM72 °FOvercast.7 mph50%30.03 "Hg10 mi
6:15 PM72 °FPartly sunny.5 mph50%30.03 "Hg10 mi
5:55 PM72 °FSunny.6 mph50%30.02 "Hg10 mi
5:35 PM73 °FSunny.6 mph47%30.01 "Hg10 mi
4:55 PM73 °FOvercast.6 mph50%30.01 "Hg10 mi
4:35 PM73 °FPartly sunny.7 mph47%30.01 "Hg10 mi
4:15 PM73 °FOvercast.5 mph50%30.01 "Hg10 mi
3:55 PM73 °FPartly sunny.3 mph47%30.01 "Hg10 mi
3:35 PM73 °FPassing clouds.10 mph47%30.00 "Hg10 mi
3:15 PM73 °FScattered clouds.7 mph47%30.01 "Hg10 mi
2:55 PM73 °FScattered clouds.9 mph47%30.01 "Hg10 mi
2:35 PM73 °FScattered clouds.10 mph47%30.01 "Hg10 mi
1:55 PM73 °FPassing clouds.9 mph50%30.02 "Hg10 mi
1:35 PM72 °FPassing clouds.7 mph50%30.02 "Hg10 mi
1:15 PM73 °FPartly sunny.8 mph50%30.02 "Hg10 mi
Weather by CustomWeather, © 2015

See weather overviewHow to use our weather pages